This is the latest recevied weather packets stored in our database for station/object KQ4JKJ. If no packets are shown the sender has not sent any weather packets the latest 1 day(s).
| Time | Temp. | Humidity | Pressure | Rain* | Wind** | Luminosity | Snow |
|---|---|---|---|---|---|---|---|
| 1777992080 | 27.22° C | 60% | 1010.8 hPa | 0 mm | 1.79 m/s, 0° | 591 W/m² | - |
| 1777991777 | 27.22° C | 63% | 1010.9 hPa | 0 mm | 0.45 m/s, 57° | 586 W/m² | - |
| 1777991474 | 27.22° C | 63% | 1010.8 hPa | 0 mm | 1.34 m/s, 49° | 570 W/m² | - |
| 1777991172 | 27.22° C | 63% | 1010.6 hPa | 0 mm | 0 m/s | 556 W/m² | - |
| 1777990869 | 26.67° C | 65% | 1010.6 hPa | 0 mm | 0 m/s | 560 W/m² | - |
| 1777990566 | 27.22° C | 62% | 1010.7 hPa | 0 mm | 1.34 m/s, 19° | 158 W/m² | - |
| 1777990263 | 27.22° C | 66% | 1010.7 hPa | 0 mm | 0.45 m/s, 100° | 523 W/m² | - |
| 1777989960 | 26.67° C | 66% | 1010.9 hPa | 0 mm | 0.89 m/s, 157° | 535 W/m² | - |
| 1777989656 | 27.22° C | 61% | 1010.8 hPa | 0 mm | 0.45 m/s, 57° | 110 W/m² | - |
| 1777989352 | 26.67° C | 63% | 1010.9 hPa | 0 mm | 0 m/s | 444 W/m² | - |
| 1777989049 | 26.67° C | 63% | 1011 hPa | 0 mm | 0.89 m/s, 61° | 465 W/m² | - |
| 1777988745 | 26.67° C | 66% | 1010.9 hPa | 0 mm | 0 m/s | 486 W/m² | - |
| 1777988443 | 26.67° C | 66% | 1010.7 hPa | 0 mm | 0.45 m/s, 57° | 161 W/m² | - |
| 1777988139 | 26.67° C | 66% | 1010.8 hPa | 0 mm | 0.89 m/s, 349° | 345 W/m² | - |
| 1777987835 | 26.67° C | 69% | 1010.7 hPa | 0 mm | 0.45 m/s, 77° | 339 W/m² | - |
| 1777987532 | 26.11° C | 70% | 1010.6 hPa | 0 mm | 0.45 m/s, 18° | 383 W/m² | - |
| 1777987230 | 25.56° C | 71% | 1010.7 hPa | 0 mm | 0.45 m/s, 151° | 356 W/m² | - |
| 1777986926 | 25.56° C | 73% | 1010.6 hPa | 0 mm | 0.89 m/s, 20° | 360 W/m² | - |
| 1777986624 | 25.56° C | 71% | 1010.2 hPa | 0 mm | 0.45 m/s, 121° | 340 W/m² | - |
| 1777986322 | 25.56° C | 72% | 1010.5 hPa | 0 mm | 0 m/s | 313 W/m² | - |
| 1777986020 | 25.56° C | 71% | 1010.4 hPa | 0 mm | 0.89 m/s, 60° | 217 W/m² | - |
| 1777985716 | 25.56° C | 72% | 1010.5 hPa | 0 mm | 0.89 m/s, 91° | 292 W/m² | - |
| 1777985413 | 25.56° C | 72% | 1010.5 hPa | 0 mm | 0.45 m/s, 22° | 210 W/m² | - |
| 1777985110 | 25° C | 73% | 1010.4 hPa | 0 mm | 0.45 m/s, 28° | 259 W/m² | - |
| 1777984806 | 25° C | 75% | 1010.1 hPa | 0 mm | 1.79 m/s, 80° | 239 W/m² | - |
* Rain latest hour (hover to see other rain measurements)
** Current wind speed in m/s (hover to see current wind gust speed)